TIME,�����g�[���mL�n,�t���O,�����g�[��mL�n,�t���O,�����g�[���mMJ�n,�t���O,�����g�[��mMJ�n,�t���O
2003/4/1 0:00,0,0,0,0,0,0,0,0
2003/4/1 0:15,0,0,0,0,0,0,0,0
2003/4/1 0:30,0,0,0,0,0,0,0,0
2003/4/1 0:45,0,0,0,0,0,0,0,0
2003/4/1 1:00,0,0,0,0,0,0,0,0
2003/4/1 1:15,0,0,0,0,0,0,0,0
2003/4/1 1:30,0,0,0,0,0,0,0,0
2003/4/1 1:45,0,0,0,0,0,0,0,0
2003/4/1 2:00,0,0,0,0,0,0,0,0
2003/4/1 2:15,0,0,0,0,0,0,0,0
2003/4/1 2:30,0,0,0,0,0,0,0,0
2003/4/1 2:45,0,0,0,0,0,0,0,0
2003/4/1 3:00,0,0,0,0,0,0,0,0
2003/4/1 3:15,0,0,0,0,0,0,0,0
2003/4/1 3:30,0,0,0,0,0,0,0,0
2003/4/1 3:45,0,0,0,0,0,0,0,0
2003/4/1 4:00,0,0,0,0,0,0,0,0
2003/4/1 4:15,0,0,0,0,0,0,0,0
2003/4/1 4:30,0,0,0,0,0,0,0,0
2003/4/1 4:45,0,0,0,0,0,0,0,0
2003/4/1 5:00,0,0,0,0,0,0,0,0
2003/4/1 5:15,0,0,0,0,0,0,0,0
2003/4/1 5:30,0,0,0,0,0,0,0,0
2003/4/1 5:45,0.001693478,0,0,0,0.248602497,0,0,0
2003/4/1 6:00,0.01112397,0,0,0,1.632998796,0,0,0
2003/4/1 6:15,0.01112397,0,0,0,1.632998796,0,0,0
2003/4/1 6:30,0.00993564,0,0.004617422,0,1.458551952,0,0.677837623,0
2003/4/1 6:45,0.00426855,0,0.006002803,0,0.62662314,0,0.881211407,0
2003/4/1 7:00,0.003970395,0,0.00593997,0,0.582853986,0,0.871987596,0
2003/4/1 7:15,0.00396825,0,0.005941502,0,0.5825391,0,0.872212567,0
2003/4/1 7:30,0.00396825,0,0.00593997,0,0.5825391,0,0.871987596,0
2003/4/1 7:45,0.00396825,0,0.00593997,0,0.5825391,0,0.871987596,0
2003/4/1 8:00,0.003975757,0,0.005941502,0,0.583641201,0,0.872212567,0
2003/4/1 8:15,0.003978975,0,0.00593997,0,0.58411353,0,0.871987596,0
2003/4/1 8:30,0.003975757,0,0.005941502,0,0.583641201,0,0.872212567,0
2003/4/1 8:45,0.003974685,0,0.00593997,0,0.583483758,0,0.871987596,0
2003/4/1 9:00,0.002645858,0,0.00593997,0,0.388411881,0,0.871987596,0
2003/4/1 9:15,0,0,0.005941502,0,0,0,0.872212567,0
2003/4/1 9:30,0,0,0,0,0,0,0,0
2003/4/1 9:45,0,0,0,0,0,0,0,0
2003/4/1 10:00,0,0,0,0,0,0,0,0
2003/4/1 10:15,0,0,0,0,0,0,0,0
2003/4/1 10:30,0,0,0,0,0,0,0,0
2003/4/1 10:45,0,0,0,0,0,0,0,0
2003/4/1 11:00,0,0,0,0,0,0,0,0
2003/4/1 11:15,0,0,0,0,0,0,0,0
2003/4/1 11:30,0,0,0,0,0,0,0,0
2003/4/1 11:45,0,0,0,0,0,0,0,0
2003/4/1 12:00,0,0,0,0,0,0,0,0
2003/4/1 12:15,0,0,0,0,0,0,0,0
2003/4/1 12:30,0,0,0,0,0,0,0,0
2003/4/1 12:45,0,0,0,0,0,0,0,0
2003/4/1 13:00,0,0,0,0,0,0,0,0
2003/4/1 13:15,0,0,0,0,0,0,0,0
2003/4/1 13:30,0,0,0,0,0,0,0,0
2003/4/1 13:45,0,0,0,0,0,0,0,0
2003/4/1 14:00,0,0,0,0,0,0,0,0
2003/4/1 14:15,0,0,0,0,0,0,0,0
2003/4/1 14:30,0,0,0,0,0,0,0,0
2003/4/1 14:45,0,0,0,0,0,0,0,0
2003/4/1 15:00,0,0,0,0,0,0,0,0
2003/4/1 15:15,0,0,0,0,0,0,0,0
2003/4/1 15:30,0,0,0,0,0,0,0,0
2003/4/1 15:45,0,0,0,0,0,0,0,0
2003/4/1 16:00,0,0,0,0,0,0,0,0
2003/4/1 16:15,0.003514583,0,0,0,0.515940711,0,0,0
2003/4/1 16:30,0.003966105,0,0,0,0.582224214,0,0,0
2003/4/1 16:45,0.003966105,0,0,0,0.582224214,0,0,0
2003/4/1 17:00,0.003966105,0,0,0,0.582224214,0,0,0
2003/4/1 17:15,0.003966105,0,0,0,0.582224214,0,0,0
2003/4/1 17:30,0.003966105,0,0,0,0.582224214,0,0,0
2003/4/1 17:45,0.003966105,0,0,0,0.582224214,0,0,0
2003/4/1 18:00,0.003966105,0,0,0,0.582224214,0,0,0
2003/4/1 18:15,0.003966105,0,0,0,0.582224214,0,0,0
2003/4/1 18:30,0.003966105,0,0,0,0.582224214,0,0,0
2003/4/1 18:45,0.003966105,0,0,0,0.582224214,0,0,0
2003/4/1 19:00,0.003966105,0,0,0,0.582224214,0,0,0
2003/4/1 19:15,0.008131695,0,0,0,1.193732826,0,0,0
2003/4/1 19:30,0.004034745,0,0,0,0.592300566,0,0,0
2003/4/1 19:45,0.003966105,0,0,0,0.582224214,0,0,0
2003/4/1 20:00,0.003966105,0,0,0,0.582224214,0,0,0
2003/4/1 20:15,0.003966105,0,0,0,0.582224214,0,0,0
2003/4/1 20:30,0.003966105,0,0,0,0.582224214,0,0,0
2003/4/1 20:45,0.003966105,0,0,0,0.582224214,0,0,0
2003/4/1 21:00,0.003966105,0,0,0,0.582224214,0,0,0
2003/4/1 21:15,0.003966105,0,0,0,0.582224214,0,0,0
2003/4/1 21:30,0.003966105,0,0,0,0.582224214,0,0,0
2003/4/1 21:45,0.003966105,0,0,0,0.582224214,0,0,0
2003/4/1 22:00,0.003966105,0,0,0,0.582224214,0,0,0
2003/4/1 22:15,0.002643712,0,0.004479497,0,0.388096995,0,0.657590233,0
2003/4/1 22:30,0,0,0.004073385,0,0,0,0.597972918,0
2003/4/1 22:45,0,0,0,0,0,0,0,0
2003/4/1 23:00,0,0,0,0,0,0,0,0
2003/4/1 23:15,0,0,0,0,0,0,0,0
2003/4/1 23:30,0,0,0,0,0,0,0,0
2003/4/1 23:45,0,0,0,0,0,0,0,0
2003/4/2 0:00,0,0,0,0,0,0,0,0
2003/4/2 0:15,0,0,0,0,0,0,0,0
2003/4/2 0:30,0,0,0,0,0,0,0,0
2003/4/2 0:45,0,0,0,0,0,0,0,0
2003/4/2 1:00,0,0,0,0,0,0,0,0
2003/4/2 1:15,0,0,0,0,0,0,0,0
2003/4/2 1:30,0,0,0,0,0,0,0,0
2003/4/2 1:45,0,0,0,0,0,0,0,0
2003/4/2 2:00,0,0,0,0,0,0,0,0
2003/4/2 2:15,0,0,0,0,0,0,0,0
2003/4/2 2:30,0,0,0,0,0,0,0,0
2003/4/2 2:45,0,0,0,0,0,0,0,0
2003/4/2 3:00,0,0,0,0,0,0,0,0
2003/4/2 3:15,0,0,0,0,0,0,0,0
2003/4/2 3:30,0,0,0,0,0,0,0,0
2003/4/2 3:45,0,0,0,0,0,0,0,0
2003/4/2 4:00,0,0,0,0,0,0,0,0
2003/4/2 4:15,0,0,0,0,0,0,0,0
2003/4/2 4:30,0,0,0,0,0,0,0,0
2003/4/2 4:45,0,0,0,0,0,0,0,0
2003/4/2 5:00,0,0,0,0,0,0,0,0
2003/4/2 5:15,0,0,0,0,0,0,0,0
2003/4/2 5:30,0,0,0,0,0,0,0,0
2003/4/2 5:45,0,0,0,0,0,0,0,0
2003/4/2 6:00,0.007158938,0,0,0,1.050932025,0,0,0
2003/4/2 6:15,0.010890165,0,0,0,1.598676222,0,0,0
2003/4/2 6:30,0.010219853,0,0.00420518,0,1.500274347,0,0.617320424,0
2003/4/2 6:45,0.01075932,0,0.00822033,0,1.579468176,0,1.206744444,0
2003/4/2 7:00,0.007436715,0,0.00630777,0,1.091709762,0,0.925980636,0
2003/4/2 7:15,0.00872586,0,0.005950698,0,1.280956248,0,0.873562393,0
2003/4/2 7:30,0.007182533,0,0.005941502,0,1.054395771,0,0.872212567,0
2003/4/2 7:45,0.004919558,0,0.00593997,0,0.722191041,0,0.871987596,0
2003/4/2 8:00,0.004020802,0,0.00593997,0,0.590253807,0,0.871987596,0
2003/4/2 8:15,0.003977903,0,0.005941502,0,0.583956087,0,0.872212567,0
2003/4/2 8:30,0.00396825,0,0.00593997,0,0.5825391,0,0.871987596,0
2003/4/2 8:45,0.003970395,0,0.00593997,0,0.582853986,0,0.871987596,0
2003/4/2 9:00,0.00396825,0,0.005941502,0,0.5825391,0,0.872212567,0
2003/4/2 9:15,0.00397683,0,0.00593997,0,0.583798644,0,0.871987596,0
2003/4/2 9:30,0.003977903,0,0.00395998,0,0.583956087,0,0.581325064,0
2003/4/2 9:45,0.003970395,0,0,0,0.582853986,0,0,0
2003/4/2 10:00,0.00396825,0,0,0,0.5825391,0,0,0
2003/4/2 10:15,0.00396825,0,0,0,0.5825391,0,0,0
2003/4/2 10:30,0.00396825,0,0,0,0.5825391,0,0,0
2003/4/2 10:45,0.003966105,0,0,0,0.582224214,0,0,0
2003/4/2 11:00,0.001322393,0,0,0,0.194127219,0,0,0
2003/4/2 11:15,0,0,0,0,0,0,0,0
2003/4/2 11:30,0,0,0,0,0,0,0,0
2003/4/2 11:45,0,0,0,0,0,0,0,0
2003/4/2 12:00,0,0,0,0,0,0,0,0
2003/4/2 12:15,0,0,0,0,0,0,0,0
2003/4/2 12:30,0,0,0,0,0,0,0,0
2003/4/2 12:45,0,0,0,0,0,0,0,0
2003/4/2 13:00,0,0,0,0,0,0,0,0
2003/4/2 13:15,0,0,0,0,0,0,0,0
2003/4/2 13:30,0.002151435,0,0,0,0.315830658,0,0,0
2003/4/2 13:45,0.00477477,0,0,0,0.700936236,0,0,0
2003/4/2 14:00,0.00511368,0,0,0,0.750688224,0,0,0
2003/4/2 14:15,0.0040755,0,0,0,0.5982834,0,0,0
2003/4/2 14:30,0.003971468,0,0,0,0.583011429,0,0,0
2003/4/2 14:45,0.003970395,0,0,0,0.582853986,0,0,0
2003/4/2 15:00,0.003967178,0,0,0,0.582381657,0,0,0
2003/4/2 15:15,0.003970395,0,0,0,0.582853986,0,0,0
2003/4/2 15:30,0.003969322,0,0,0,0.582696543,0,0,0
2003/4/2 15:45,0.005170523,0,0,0,0.759032703,0,0,0
2003/4/2 16:00,0.004241738,0,0,0,0.622687065,0,0,0
2003/4/2 16:15,0.00396825,0,0,0,0.5825391,0,0,0
2003/4/2 16:30,0.001322393,0,0,0,0.194127219,0,0,0
2003/4/2 16:45,0,0,0,0,0,0,0,0
2003/4/2 17:00,0,0,0,0,0,0,0,0
2003/4/2 17:15,0,0,0,0,0,0,0,0
2003/4/2 17:30,0,0,0,0,0,0,0,0
2003/4/2 17:45,0,0,0,0,0,0,0,0
2003/4/2 18:00,0,0,0,0,0,0,0,0
2003/4/2 18:15,0,0,0,0,0,0,0,0
2003/4/2 18:30,0,0,0,0,0,0,0,0
2003/4/2 18:45,0,0,0,0,0,0,0,0
2003/4/2 19:00,0,0,0,0,0,0,0,0
2003/4/2 19:15,0,0,0,0,0,0,0,0
2003/4/2 19:30,0,0,0,0,0,0,0,0
2003/4/2 19:45,0,0,0,0,0,0,0,0
2003/4/2 20:00,0,0,0,0,0,0,0,0
2003/4/2 20:15,0,0,0,0,0,0,0,0
2003/4/2 20:30,0,0,0,0,0,0,0,0
2003/4/2 20:45,0,0,0,0,0,0,0,0
2003/4/2 21:00,0,0,0,0,0,0,0,0
2003/4/2 21:15,0,0,0,0,0,0,0,0
2003/4/2 21:30,0,0,0,0,0,0,0,0
2003/4/2 21:45,0,0,0,0,0,0,0,0
2003/4/2 22:00,0,0,0,0,0,0,0,0
2003/4/2 22:15,0,0,0,0,0,0,0,0
2003/4/2 22:30,0,0,0,0,0,0,0,0
2003/4/2 22:45,0,0,0,0,0,0,0,0
2003/4/2 23:00,0,0,0,0,0,0,0,0
2003/4/2 23:15,0,0,0,0,0,0,0,0
2003/4/2 23:30,0,0,0,0,0,0,0,0
2003/4/2 23:45,0,0,0,0,0,0,0,0
2003/4/3 0:00,0,0,0,0,0,0,0,0
2003/4/3 0:15,0.01033461,0,0,0,1.517120748,0,0,0
2003/4/3 0:30,0.01112397,0,0,0,1.632998796,0,0,0
2003/4/3 0:45,0.01079793,0,0,0,1.585136124,0,0,0
2003/4/3 1:00,0.003584295,0,0,0,0.526174506,0,0,0
2003/4/3 1:15,0,0,0,0,0,0,0,0
2003/4/3 1:30,0,0,0,0,0,0,0,0
2003/4/3 1:45,0,0,0,0,0,0,0,0
2003/4/3 2:00,0,0,0,0,0,0,0,0
2003/4/3 2:15,0,0,0,0,0,0,0,0
2003/4/3 2:30,0,0,0,0,0,0,0,0
2003/4/3 2:45,0,0,0,0,0,0,0,0
2003/4/3 3:00,0,0,0,0,0,0,0,0
2003/4/3 3:15,0,0,0,0,0,0,0,0
2003/4/3 3:30,0,0,0,0,0,0,0,0
2003/4/3 3:45,0,0,0,0,0,0,0,0
2003/4/3 4:00,0,0,0,0,0,0,0,0
2003/4/3 4:15,0,0,0,0,0,0,0,0
2003/4/3 4:30,0,0,0,0,0,0,0,0
2003/4/3 4:45,0,0,0,0,0,0,0,0
2003/4/3 5:00,0,0,0,0,0,0,0,0
2003/4/3 5:15,0,0,0,0,0,0,0,0
2003/4/3 5:30,0,0,0,0,0,0,0,0
2003/4/3 5:45,0,0,0,0,0,0,0,0
2003/4/3 6:00,0.000139425,0,0,0,0.02046759,0,0,0
2003/4/3 6:15,0,0,0,0,0,0,0,0
2003/4/3 6:30,0,0,0,0,0,0,0,0
2003/4/3 6:45,0,0,0,0,0,0,0,0
2003/4/3 7:00,0,0,0.01862907,0,0,0,2.734747476,0
2003/4/3 7:15,0,0,0.012807102,0,0,0,1.880082647,0
2003/4/3 7:30,0,0,0.00837358,0,0,0,1.229241544,0
2003/4/3 7:45,0,0,0.011823238,0,0,0,1.735651265,0
2003/4/3 8:00,0.005321745,0,0.006582088,0,0.781232166,0,0.966250445,0
2003/4/3 8:15,0.00842985,0,0.006744533,0,1.23750198,0,0.990097371,0
2003/4/3 8:30,0.003967178,0,0.00464041,0,0.582381657,0,0.681212188,0
2003/4/3 8:45,0.003967178,0,0.005066445,0,0.582381657,0,0.743754126,0
2003/4/3 9:00,0.003966105,0,0,0,0.582224214,0,0,0
2003/4/3 9:15,0.002643712,0,0,0,0.388096995,0,0,0
2003/4/3 9:30,0,0,0,0,0,0,0,0
2003/4/3 9:45,0,0,0,0,0,0,0,0
2003/4/3 10:00,0,0,0,0,0,0,0,0
2003/4/3 10:15,0,0,0,0,0,0,0,0
2003/4/3 10:30,0,0,0,0,0,0,0,0
2003/4/3 10:45,0,0,0,0,0,0,0,0
2003/4/3 11:00,0,0,0,0,0,0,0,0
2003/4/3 11:15,0,0,0,0,0,0,0,0
2003/4/3 11:30,0,0,0,0,0,0,0,0
2003/4/3 11:45,0,0,0,0,0,0,0,0
2003/4/3 12:00,0,0,0,0,0,0,0,0
2003/4/3 12:15,0,0,0,0,0,0,0,0
2003/4/3 12:30,0,0,0,0,0,0,0,0
2003/4/3 12:45,0,0,0,0,0,0,0,0
2003/4/3 13:00,0,0,0,0,0,0,0,0
2003/4/3 13:15,0,0,0,0,0,0,0,0
2003/4/3 13:30,0,0,0,0,0,0,0,0
2003/4/3 13:45,0,0,0,0,0,0,0,0
2003/4/3 14:00,0,0,0,0,0,0,0,0
2003/4/3 14:15,0,0,0,0,0,0,0,0
2003/4/3 14:30,0,0,0,0,0,0,0,0
2003/4/3 14:45,0,0,0,0,0,0,0,0
2003/4/3 15:00,0,0,0,0,0,0,0,0
2003/4/3 15:15,0,0,0,0,0,0,0,0
2003/4/3 15:30,0,0,0,0,0,0,0,0
2003/4/3 15:45,0,0,0,0,0,0,0,0
2003/4/3 16:00,0,0,0,0,0,0,0,0
2003/4/3 16:15,0,0,0,0,0,0,0,0
2003/4/3 16:30,0,0,0,0,0,0,0,0
2003/4/3 16:45,0,0,0,0,0,0,0,0
2003/4/3 17:00,0,0,0,0,0,0,0,0
2003/4/3 17:15,0,0,0,0,0,0,0,0
2003/4/3 17:30,0,0,0,0,0,0,0,0
2003/4/3 17:45,0,0,0,0,0,0,0,0
2003/4/3 18:00,0,0,0,0,0,0,0,0
2003/4/3 18:15,0,0,0,0,0,0,0,0
2003/4/3 18:30,0,0,0,0,0,0,0,0
2003/4/3 18:45,0,0,0,0,0,0,0,0
2003/4/3 19:00,0,0,0,0,0,0,0,0
2003/4/3 19:15,0,0,0,0,0,0,0,0
2003/4/3 19:30,0,0,0,0,0,0,0,0
2003/4/3 19:45,0,0,0,0,0,0,0,0
2003/4/3 20:00,0,0,0,0,0,0,0,0
2003/4/3 20:15,0,0,0,0,0,0,0,0
2003/4/3 20:30,0,0,0,0,0,0,0,0
2003/4/3 20:45,0,0,0,0,0,0,0,0
2003/4/3 21:00,0,0,0,0,0,0,0,0
2003/4/3 21:15,0,0,0,0,0,0,0,0
2003/4/3 21:30,0,0,0,0,0,0,0,0
2003/4/3 21:45,0,0,0,0,0,0,0,0
2003/4/3 22:00,0,0,0,0,0,0,0,0
2003/4/3 22:15,0,0,0.002064278,0,0,0,0.303035937,0
2003/4/3 22:30,0,0,0.013078355,0,0,0,1.919902514,0
2003/4/3 22:45,0,0,0.008451737,0,0,0,1.240715065,0
2003/4/3 23:00,0,0,0.00671848,0,0,0,0.986272864,0
2003/4/3 23:15,0,0,0.006232678,0,0,0,0.914957057,0
2003/4/3 23:30,0,0,0.006102415,0,0,0,0.895834522,0
2003/4/3 23:45,0,0,0.005978283,0,0,0,0.877611871,0
2003/4/4 0:00,0,0,0.001990717,0,0,0,0.292237329,0
2003/4/4 0:15,0,0,0,0,0,0,0,0
2003/4/4 0:30,0,0,0,0,0,0,0,0
2003/4/4 0:45,0,0,0,0,0,0,0,0
2003/4/4 1:00,0,0,0,0,0,0,0,0
2003/4/4 1:15,0,0,0,0,0,0,0,0
2003/4/4 1:30,0,0,0,0,0,0,0,0
2003/4/4 1:45,0,0,0,0,0,0,0,0
2003/4/4 2:00,0,0,0,0,0,0,0,0
2003/4/4 2:15,0,0,0,0,0,0,0,0
2003/4/4 2:30,0,0,0,0,0,0,0,0
2003/4/4 2:45,0,0,0,0,0,0,0,0
2003/4/4 3:00,0,0,0,0,0,0,0,0
2003/4/4 3:15,0,0,0,0,0,0,0,0
2003/4/4 3:30,0,0,0,0,0,0,0,0
2003/4/4 3:45,0,0,0,0,0,0,0,0
2003/4/4 4:00,0,0,0,0,0,0,0,0
2003/4/4 4:15,0,0,0,0,0,0,0,0
2003/4/4 4:30,0,0,0,0,0,0,0,0
2003/4/4 4:45,0,0,0,0,0,0,0,0
2003/4/4 5:00,0,0,0,0,0,0,0,0
2003/4/4 5:15,0,0,0,0,0,0,0,0
2003/4/4 5:30,0,0,0,0,0,0,0,0
2003/4/4 5:45,0,0,0,0,0,0,0,0
2003/4/4 6:00,0,0,0,0,0,0,0,0
2003/4/4 6:15,0,0,0,0,0,0,0,0
2003/4/4 6:30,0,0,0.008886967,0,0,0,1.304606829,0
2003/4/4 6:45,0.00490776,0,0.017965497,0,0.720459168,0,2.637335033,0
2003/4/4 7:00,0.003966105,0,0.014054558,0,0.582224214,0,2.063209041,0
2003/4/4 7:15,0.003966105,0,0.008842525,0,0.582224214,0,1.29808267,0
2003/4/4 7:30,0.003967178,0,0.006163715,0,0.582381657,0,0.904833362,0
2003/4/4 7:45,0.003966105,0,0.006034985,0,0.582224214,0,0.885935798,0
2003/4/4 8:00,0.008522085,0,0.005975218,0,1.251042078,0,0.877161929,0
2003/4/4 8:15,0.0075075,0,0,0,1.102101,0,0,0
2003/4/4 8:30,0.005193045,0,0,0,0.762339006,0,0,0
2003/4/4 8:45,0.005020373,0,0,0,0.736990683,0,0,0
2003/4/4 9:00,0.00626769,0,0,0,0.920096892,0,0,0
2003/4/4 9:15,0.001667738,0,0,0,0.244823865,0,0,0
2003/4/4 9:30,0,0,0,0,0,0,0,0
2003/4/4 9:45,0,0,0,0,0,0,0,0
2003/4/4 10:00,0,0,0,0,0,0,0,0
2003/4/4 10:15,0,0,0,0,0,0,0,0
2003/4/4 10:30,0,0,0,0,0,0,0,0
2003/4/4 10:45,0,0,0,0,0,0,0,0
2003/4/4 11:00,0,0,0,0,0,0,0,0
2003/4/4 11:15,0,0,0,0,0,0,0,0
2003/4/4 11:30,0,0,0,0,0,0,0,0
2003/4/4 11:45,0,0,0,0,0,0,0,0
2003/4/4 12:00,0,0,0,0,0,0,0,0
2003/4/4 12:15,0.006725648,0,0,0,0.987325053,0,0,0
2003/4/4 12:30,0,0,0.011608688,0,0,0,1.704155325,0
2003/4/4 12:45,0,0,0.009682335,0,0,0,1.421366778,0
2003/4/4 13:00,0,0,0.00838584,0,0,0,1.231041312,0
2003/4/4 13:15,0,0,0.00197999,0,0,0,0.290662532,0
2003/4/4 13:30,0,0,0,0,0,0,0,0
2003/4/4 13:45,0,0,0,0,0,0,0,0
2003/4/4 14:00,0.01010295,0,0,0,1.48311306,0,0,0
2003/4/4 14:15,0,0,0,0,0,0,0,0
2003/4/4 14:30,0,0,0,0,0,0,0,0
2003/4/4 14:45,0,0,0,0,0,0,0,0
2003/4/4 15:00,0,0,0,0,0,0,0,0
2003/4/4 15:15,0,0,0,0,0,0,0,0
2003/4/4 15:30,0,0,0,0,0,0,0,0
2003/4/4 15:45,0,0,0,0,0,0,0,0
2003/4/4 16:00,0,0,0,0,0,0,0,0
2003/4/4 16:15,0,0,0,0,0,0,0,0
2003/4/4 16:30,0,0,0,0,0,0,0,0
2003/4/4 16:45,0.002631915,0,0,0,0.386365122,0,0,0
2003/4/4 17:00,0.007785277,0,0,0,1.142878737,0,0,0
2003/4/4 17:15,0.00396825,0,0,0,0.5825391,0,0,0
2003/4/4 17:30,0.00396825,0,0,0,0.5825391,0,0,0
2003/4/4 17:45,0.00472758,0,0,0,0.694008744,0,0,0
2003/4/4 18:00,0.00438867,0,0,0,0.644256756,0,0,0
2003/4/4 18:15,0.003974685,0,0,0,0.583483758,0,0,0
2003/4/4 18:30,0,0,0,0,0,0,0,0
2003/4/4 18:45,0,0,0,0,0,0,0,0
2003/4/4 19:00,0,0,0,0,0,0,0,0
2003/4/4 19:15,0,0,0,0,0,0,0,0
2003/4/4 19:30,0,0,0,0,0,0,0,0
2003/4/4 19:45,0,0,0,0,0,0,0,0
2003/4/4 20:00,0,0,0,0,0,0,0,0
2003/4/4 20:15,0,0,0,0,0,0,0,0
2003/4/4 20:30,0,0,0,0,0,0,0,0
2003/4/4 20:45,0,0,0.013380257,0,0,0,1.964221801,0
2003/4/4 21:00,0,0,0.017686582,0,0,0,2.596390311,0
2003/4/4 21:15,0.002989058,0,0.013683692,0,0.438793641,0,2.008766059,0
2003/4/4 21:30,0.006536887,0,0.011204107,0,0.959615085,0,1.644762981,0
2003/4/4 21:45,0.00674817,0,0.009098453,0,0.990631356,0,1.335652827,0
2003/4/4 22:00,0.001779278,0,0.00966701,0,0.261197937,0,1.419117068,0
2003/4/4 22:15,0,0,0.009640958,0,0,0,1.415292561,0
2003/4/4 22:30,0,0,0.011109093,0,0,0,1.630814779,0
2003/4/4 22:45,0,0,0.01004707,0,0,0,1.474909876,0
2003/4/4 23:00,0,0,0.011184185,0,0,0,1.641838358,0
2003/4/4 23:15,0,0,0.011024805,0,0,0,1.618441374,0
2003/4/4 23:30,0,0,0.006807365,0,0,0,0.999321182,0
2003/4/4 23:45,0,0,0,0,0,0,0,0
2003/4/5 0:00,0,0,0,0,0,0,0,0
2003/4/5 0:15,0,0,0,0,0,0,0,0
2003/4/5 0:30,0,0,0,0,0,0,0,0
2003/4/5 0:45,0,0,0,0,0,0,0,0
2003/4/5 1:00,0,0,0,0,0,0,0,0
2003/4/5 1:15,0,0,0,0,0,0,0,0
2003/4/5 1:30,0,0,0,0,0,0,0,0
2003/4/5 1:45,0,0,0,0,0,0,0,0
2003/4/5 2:00,0,0,0,0,0,0,0,0
2003/4/5 2:15,0,0,0,0,0,0,0,0
2003/4/5 2:30,0,0,0,0,0,0,0,0
2003/4/5 2:45,0,0,0,0,0,0,0,0
2003/4/5 3:00,0,0,0,0,0,0,0,0
2003/4/5 3:15,0,0,0,0,0,0,0,0
2003/4/5 3:30,0,0,0,0,0,0,0,0
2003/4/5 3:45,0,0,0,0,0,0,0,0
2003/4/5 4:00,0,0,0,0,0,0,0,0
2003/4/5 4:15,0,0,0,0,0,0,0,0
2003/4/5 4:30,0,0,0,0,0,0,0,0
2003/4/5 4:45,0,0,0,0,0,0,0,0
2003/4/5 5:00,0,0,0,0,0,0,0,0
2003/4/5 5:15,0,0,0,0,0,0,0,0
2003/4/5 5:30,0,0,0,0,0,0,0,0
2003/4/5 5:45,0,0,0,0,0,0,0,0
2003/4/5 6:00,0,0,0,0,0,0,0,0
2003/4/5 6:15,0,0,0,0,0,0,0,0
2003/4/5 6:30,0,0,0,0,0,0,0,0
2003/4/5 6:45,0,0,0,0,0,0,0,0
2003/4/5 7:00,0,0,0,0,0,0,0,0
2003/4/5 7:15,0,0,0,0,0,0,0,0
2003/4/5 7:30,0.008463098,0,0,0,1.242382713,0,0,0
2003/4/5 7:45,0.011125042,0,0,0,1.633156239,0,0,0
2003/4/5 8:00,0.007416338,0,0.028852377,0,1.088718345,0,4.235529017,0
2003/4/5 8:15,0,0,0.01930337,0,0,0,2.833734716,0
2003/4/5 8:30,0,0,0,0,0,0,0,0
2003/4/5 8:45,0.000925567,0,0,0,0.135873309,0,0,0
2003/4/5 9:00,0.01112397,0,0,0,1.632998796,0,0,0
2003/4/5 9:15,0.011022082,0,0,0,1.618041711,0,0,0
2003/4/5 9:30,0.010417192,0,0,0,1.529243859,0,0,0
2003/4/5 9:45,0.008526375,0,0,0,1.25167185,0,0,0
2003/4/5 10:00,0.003355853,0,0.00996125,0,0.492639147,0,1.4623115,0
2003/4/5 10:15,0,0,0.02743788,0,0,0,4.027880783,0
2003/4/5 10:30,0,0,0.011979552,0,0,0,1.758598307,0
2003/4/5 10:45,0,0,0.00812225,0,0,0,1.1923463,0
2003/4/5 11:00,0,0,0.011317512,0,0,0,1.661410835,0
2003/4/5 11:15,0,0,0.025229547,0,0,0,3.703697572,0
2003/4/5 11:30,0,0,0.007474003,0,0,0,1.097183567,0
2003/4/5 11:45,0,0,0.005978283,0,0,0,0.877611871,0
2003/4/5 12:00,0,0,0.00593997,0,0,0,0.871987596,0
2003/4/5 12:15,0,0,0.005941502,0,0,0,0.872212567,0
2003/4/5 12:30,0,0,0.00593997,0,0,0,0.871987596,0
2003/4/5 12:45,0,0,0.005941502,0,0,0,0.872212567,0
2003/4/5 13:00,0,0,0.014402435,0,0,0,2.114277458,0
2003/4/5 13:15,0,0,0.005941502,0,0,0,0.872212567,0
2003/4/5 13:30,0,0,0.00593997,0,0,0,0.871987596,0
2003/4/5 13:45,0,0,0.005941502,0,0,0,0.872212567,0
2003/4/5 14:00,0,0,0.00593997,0,0,0,0.871987596,0
2003/4/5 14:15,0,0,0.005941502,0,0,0,0.872212567,0
2003/4/5 14:30,0,0,0.00593997,0,0,0,0.871987596,0
2003/4/5 14:45,0,0,0.005941502,0,0,0,0.872212567,0
2003/4/5 15:00,0,0,0.00593997,0,0,0,0.871987596,0
2003/4/5 15:15,0,0,0.005941502,0,0,0,0.872212567,0
2003/4/5 15:30,0,0,0.00593997,0,0,0,0.871987596,0
2003/4/5 15:45,0,0,0.005941502,0,0,0,0.872212567,0
2003/4/5 16:00,0,0,0.00593997,0,0,0,0.871987596,0
2003/4/5 16:15,0,0,0.005941502,0,0,0,0.872212567,0
2003/4/5 16:30,0,0,0.00593997,0,0,0,0.871987596,0
2003/4/5 16:45,0,0,0.005941502,0,0,0,0.872212567,0
2003/4/5 17:00,0,0,0.00593997,0,0,0,0.871987596,0
2003/4/5 17:15,0,0,0.005941502,0,0,0,0.872212567,0
2003/4/5 17:30,0,0,0.00593997,0,0,0,0.871987596,0
2003/4/5 17:45,0,0,0.005941502,0,0,0,0.872212567,0
2003/4/5 18:00,0,0,0.00593997,0,0,0,0.871987596,0
2003/4/5 18:15,0,0,0.00593997,0,0,0,0.871987596,0
2003/4/5 18:30,0,0,0.005941502,0,0,0,0.872212567,0
2003/4/5 18:45,0,0,0.00593997,0,0,0,0.871987596,0
2003/4/5 19:00,0,0,0.00593997,0,0,0,0.871987596,0
2003/4/5 19:15,0,0,0.005941502,0,0,0,0.872212567,0
2003/4/5 19:30,0,0,0.00593997,0,0,0,0.871987596,0
2003/4/5 19:45,0,0,0,0,0,0,0,0
2003/4/5 20:00,0,0,0.009564333,0,0,0,1.404044011,0
2003/4/5 20:15,0,0,0.00608709,0,0,0,0.893584812,0
2003/4/5 20:30,0.005936288,0,0.006175975,0,0.871447005,0,0.90663313,0
2003/4/5 20:45,0.00608751,0,0.006218885,0,0.893646468,0,0.912932318,0
2003/4/5 21:00,0.005644568,0,0.010232503,0,0.828622509,0,1.502131367,0
2003/4/5 21:15,0.006917625,0,0.006349147,0,1.01550735,0,0.932054853,0
2003/4/5 21:30,0.007304798,0,0.007003525,0,1.072344273,0,1.02811747,0
2003/4/5 21:45,0.00552123,0,0.009204195,0,0.810516564,0,1.351175826,0
2003/4/5 22:00,0.003970395,0,0.010908335,0,0.582853986,0,1.601343578,0
2003/4/5 22:15,0.003970395,0,0.010131357,0,0.582853986,0,1.487283281,0
2003/4/5 22:30,0.00396825,0,0.010969635,0,0.5825391,0,1.610342418,0
2003/4/5 22:45,0.004078717,0,0.010816385,0,0.598755729,0,1.587845318,0
2003/4/5 23:00,0.00495924,0,0.01199641,0,0.728016432,0,1.761072988,0
2003/4/5 23:15,0.00492063,0,0.013616263,0,0.722348484,0,1.998867335,0
2003/4/5 23:30,0,0,0.010695318,0,0,0,1.570072609,0
2003/4/5 23:45,0,0,0.0142216,0,0,0,2.08773088,0
2003/4/6 0:00,0,0,0.014042297,0,0,0,2.061409273,0
2003/4/6 0:15,0,0,0.014776365,0,0,0,2.169170382,0
2003/4/6 0:30,0,0,0.014777898,0,0,0,2.169395353,0
2003/4/6 0:45,0,0,0.01539243,0,0,0,2.259608724,0
2003/4/6 1:00,0,0,0.015842985,0,0,0,2.325750198,0
2003/4/6 1:15,0,0,0.016813058,0,0,0,2.468156841,0
2003/4/6 1:30,0,0,0.017358627,0,0,0,2.548246517,0
2003/4/6 1:45,0,0,0.005386737,0,0,0,0.790773065,0
2003/4/6 2:00,0,0,0,0,0,0,0,0
2003/4/6 2:15,0,0,0,0,0,0,0,0
2003/4/6 2:30,0,0,0,0,0,0,0,0
2003/4/6 2:45,0,0,0,0,0,0,0,0
2003/4/6 3:00,0,0,0,0,0,0,0,0
2003/4/6 3:15,0,0,0,0,0,0,0,0
2003/4/6 3:30,0,0,0,0,0,0,0,0
2003/4/6 3:45,0,0,0,0,0,0,0,0
2003/4/6 4:00,0,0,0,0,0,0,0,0
2003/4/6 4:15,0,0,0,0,0,0,0,0
2003/4/6 4:30,0,0,0,0,0,0,0,0
2003/4/6 4:45,0,0,0,0,0,0,0,0
2003/4/6 5:00,0,0,0,0,0,0,0,0
2003/4/6 5:15,0,0,0,0,0,0,0,0
2003/4/6 5:30,0,0,0,0,0,0,0,0
2003/4/6 5:45,0,0,0,0,0,0,0,0
2003/4/6 6:00,0,0,0,0,0,0,0,0
2003/4/6 6:15,0,0,0,0,0,0,0,0
2003/4/6 6:30,0,0,0,0,0,0,0,0
2003/4/6 6:45,0,0,0,0,0,0,0,0
2003/4/6 7:00,0,0,0,0,0,0,0,0
2003/4/6 7:15,0,0,0.009240975,0,0,0,1.35657513,0
2003/4/6 7:30,0,0,0.005959892,0,0,0,0.874912219,0
2003/4/6 7:45,0,0,0.006140728,0,0,0,0.901458797,0
2003/4/6 8:00,0,0,0.00623421,0,0,0,0.915182028,0
2003/4/6 8:15,0,0,0.00645489,0,0,0,0.947577852,0
2003/4/6 8:30,0,0,0.006220418,0,0,0,0.913157289,0
2003/4/6 8:45,0.005313165,0,0.006297042,0,0.779972622,0,0.924405839,0
2003/4/6 9:00,0.005889098,0,0.006225015,0,0.864519513,0,0.913832202,0
2003/4/6 9:15,0.006232298,0,0.001983055,0,0.914901273,0,0.291112474,0
2003/4/6 9:30,0.005080433,0,0,0,0.745807491,0,0,0
2003/4/6 9:45,0.003996135,0,0,0,0.586632618,0,0,0
2003/4/6 10:00,0.00399399,0,0,0,0.586317732,0,0,0
2003/4/6 10:15,0.003974685,0,0,0,0.583483758,0,0,0
2003/4/6 10:30,0,0,0,0,0,0,0,0
2003/4/6 10:45,0,0,0,0,0,0,0,0
2003/4/6 11:00,0,0,0,0,0,0,0,0
2003/4/6 11:15,0,0,0,0,0,0,0,0
2003/4/6 11:30,0,0,0,0,0,0,0,0
2003/4/6 11:45,0,0,0.00596449,0,0,0,0.875587132,0
2003/4/6 12:00,0,0,0.005947633,0,0,0,0.873112451,0
2003/4/6 12:15,0,0,0.005947633,0,0,0,0.873112451,0
2003/4/6 12:30,0.004479833,0,0.005949165,0,0.657639411,0,0.873337422,0
2003/4/6 12:45,0.00396825,0,0.001981523,0,0.5825391,0,0.290887503,0
2003/4/6 13:00,0.003967178,0,0,0,0.582381657,0,0,0
2003/4/6 13:15,0.00132132,0,0,0,0.193969776,0,0,0
2003/4/6 13:30,0,0,0,0,0,0,0,0
2003/4/6 13:45,0,0,0,0,0,0,0,0
2003/4/6 14:00,0,0,0,0,0,0,0,0
2003/4/6 14:15,0,0,0,0,0,0,0,0
2003/4/6 14:30,0,0,0,0,0,0,0,0
2003/4/6 14:45,0,0,0,0,0,0,0,0
2003/4/6 15:00,0,0,0,0,0,0,0,0
2003/4/6 15:15,0,0,0,0,0,0,0,0
2003/4/6 15:30,0,0,0.00942181,0,0,0,1.383121708,0
2003/4/6 15:45,0,0,0.0059461,0,0,0,0.87288748,0
2003/4/6 16:00,0,0,0.003961513,0,0,0,0.581550035,0
2003/4/6 16:15,0,0,0,0,0,0,0,0
2003/4/6 16:30,0,0,0,0,0,0,0,0
2003/4/6 16:45,0,0,0,0,0,0,0,0
2003/4/6 17:00,0,0,0,0,0,0,0,0
2003/4/6 17:15,0,0,0,0,0,0,0,0
2003/4/6 17:30,0,0,0,0,0,0,0,0
2003/4/6 17:45,0,0,0,0,0,0,0,0
2003/4/6 18:00,0,0,0,0,0,0,0,0
2003/4/6 18:15,0.002963318,0,0,0,0.435015009,0,0,0
2003/4/6 18:30,0,0,0,0,0,0,0,0
2003/4/6 18:45,0,0,0,0,0,0,0,0
2003/4/6 19:00,0,0,0,0,0,0,0,0
2003/4/6 19:15,0,0,0,0,0,0,0,0
2003/4/6 19:30,0,0,0,0,0,0,0,0
2003/4/6 19:45,0,0,0,0,0,0,0,0
2003/4/6 20:00,0,0,0,0,0,0,0,0
2003/4/6 20:15,0,0,0.00913983,0,0,0,1.341727044,0
2003/4/6 20:30,0,0,0.0059461,0,0,0,0.87288748,0
2003/4/6 20:45,0,0,0.005941502,0,0,0,0.872212567,0
2003/4/6 21:00,0,0,0.00593997,0,0,0,0.871987596,0
2003/4/6 21:15,0,0,0.005941502,0,0,0,0.872212567,0
2003/4/6 21:30,0,0,0.005941502,0,0,0,0.872212567,0
2003/4/6 21:45,0,0,0.00593997,0,0,0,0.871987596,0
2003/4/6 22:00,0,0,0.005941502,0,0,0,0.872212567,0
2003/4/6 22:15,0,0,0.005941502,0,0,0,0.872212567,0
2003/4/6 22:30,0,0,0.00593997,0,0,0,0.871987596,0